Time,TemperatureF,DewpointF,PressureIn,WindDirection,WindDirectionDegrees,WindSpeedMPH,WindSpeedGustMPH,Humidity,HourlyPrecipIn,Conditions,Clouds,dailyrainin,SoftwareType,DateUTC
2013-01-05 00:05:00,28.8,22.0,29.72,SSW,202,1.0,1.0,74,0.00,,,0.00,vanprod,2013-01-05 05:05:00,
2013-01-05 00:15:00,29.4,22.0,29.72,SW,233,2.0,3.0,73,0.00,,,0.00,vanprod,2013-01-05 05:15:00,
2013-01-05 00:25:00,30.1,22.0,29.72,SW,234,2.0,2.0,72,0.00,,,0.00,vanprod,2013-01-05 05:25:00,
2013-01-05 00:35:00,30.7,22.0,29.72,WSW,254,2.0,2.0,69,0.00,,,0.00,vanprod,2013-01-05 05:35:00,
2013-01-05 00:45:00,31.0,22.0,29.72,WSW,257,1.0,3.0,70,0.00,,,0.00,vanprod,2013-01-05 05:45:00,
2013-01-05 00:55:00,31.0,22.0,29.72,SW,227,2.0,2.0,69,0.00,,,0.00,vanprod,2013-01-05 05:55:00,
2013-01-05 01:05:00,30.9,22.0,29.72,WSW,244,1.0,2.0,70,0.00,,,0.00,vanprod,2013-01-05 06:05:00,
2013-01-05 01:15:00,30.7,22.0,29.73,SW,216,2.0,3.0,71,0.00,,,0.00,vanprod,2013-01-05 06:15:00,
2013-01-05 01:25:00,30.7,23.0,29.73,SW,215,1.0,3.0,72,0.00,,,0.00,vanprod,2013-01-05 06:25:00,
2013-01-05 01:35:00,30.7,22.0,29.73,WSW,237,2.0,2.0,71,0.00,,,0.00,vanprod,2013-01-05 06:35:00,
2013-01-05 01:45:00,31.2,22.0,29.75,WSW,253,2.0,2.0,68,0.00,,,0.00,vanprod,2013-01-05 06:45:00,
2013-01-05 01:55:00,32.1,22.0,29.75,WSW,240,2.0,2.0,67,0.00,,,0.00,vanprod,2013-01-05 06:55:00,
2013-01-05 02:05:00,32.4,23.0,29.75,WSW,243,1.0,1.0,68,0.00,,,0.00,vanprod,2013-01-05 07:05:00,
2013-01-05 02:15:00,32.5,23.0,29.76,WSW,244,2.0,0.0,67,0.00,,,0.00,vanprod,2013-01-05 07:15:00,
2013-01-05 02:25:00,32.7,23.0,29.76,WSW,247,1.0,0.0,66,0.00,,,0.00,vanprod,2013-01-05 07:25:00,
2013-01-05 02:35:00,32.7,24.0,29.77,West,260,1.0,0.0,70,0.00,,,0.00,vanprod,2013-01-05 07:35:00,
2013-01-05 02:45:00,32.5,24.0,29.77,West,260,0.0,0.0,69,0.00,,,0.00,vanprod,2013-01-05 07:45:00,
2013-01-05 02:55:00,32.1,23.0,29.77,SSW,208,2.0,2.0,69,0.00,,,0.00,vanprod,2013-01-05 07:55:00,
2013-01-05 03:05:00,31.8,23.0,29.76,SW,224,2.0,2.0,69,0.00,,,0.00,vanprod,2013-01-05 08:05:00,
2013-01-05 03:15:00,31.3,23.0,29.77,WSW,243,1.0,0.0,70,0.00,,,0.00,vanprod,2013-01-05 08:15:00,
2013-01-05 03:25:00,30.6,22.0,29.77,WSW,250,1.0,1.0,71,0.00,,,0.00,vanprod,2013-01-05 08:25:00,
2013-01-05 03:35:00,30.1,22.0,29.78,WSW,250,0.0,0.0,72,0.00,,,0.00,vanprod,2013-01-05 08:35:00,
2013-01-05 03:45:00,29.4,22.0,29.78,WSW,251,0.0,0.0,73,0.00,,,0.00,vanprod,2013-01-05 08:45:00,
2013-01-05 03:55:00,29.0,22.0,29.78,WSW,243,1.0,3.0,75,0.00,,,0.00,vanprod,2013-01-05 08:55:00,
2013-01-05 04:05:00,28.5,22.0,29.78,WSW,237,1.0,0.0,76,0.00,,,0.00,vanprod,2013-01-05 09:05:00,
2013-01-05 04:15:00,28.4,22.0,29.78,WSW,237,1.0,1.0,77,0.00,,,0.00,vanprod,2013-01-05 09:15:00,
2013-01-05 04:25:00,28.2,22.0,29.78,WSW,237,1.0,1.0,78,0.00,,,0.00,vanprod,2013-01-05 09:25:00,
2013-01-05 04:35:00,28.2,22.0,29.79,SW,219,1.0,2.0,78,0.00,,,0.00,vanprod,2013-01-05 09:35:00,
2013-01-05 04:45:00,28.1,22.0,29.79,SW,217,1.0,1.0,78,0.00,,,0.00,vanprod,2013-01-05 09:45:00,
2013-01-05 04:55:00,28.1,22.0,29.79,SW,217,1.0,1.0,77,0.00,,,0.00,vanprod,2013-01-05 09:55:00,
2013-01-05 05:05:00,27.9,22.0,29.80,SW,219,1.0,0.0,78,0.00,,,0.00,vanprod,2013-01-05 10:05:00,
2013-01-05 05:15:00,27.8,22.0,29.81,SW,217,0.0,1.0,78,0.00,,,0.00,vanprod,2013-01-05 10:15:00,
2013-01-05 05:25:00,27.5,22.0,29.81,SW,217,1.0,1.0,78,0.00,,,0.00,vanprod,2013-01-05 10:25:00,
2013-01-05 05:35:00,27.3,22.0,29.82,SW,217,0.0,0.0,79,0.00,,,0.00,vanprod,2013-01-05 10:35:00,
2013-01-05 05:45:00,27.2,22.0,29.84,SW,217,0.0,0.0,79,0.00,,,0.00,vanprod,2013-01-05 10:45:00,
2013-01-05 05:55:00,27.2,22.0,29.84,SW,219,0.0,0.0,79,0.00,,,0.00,vanprod,2013-01-05 10:55:00,
2013-01-05 06:05:00,27.2,22.0,29.85,SW,217,0.0,0.0,79,0.00,,,0.00,vanprod,2013-01-05 11:05:00,
2013-01-05 06:15:00,26.9,21.0,29.86,SW,219,0.0,0.0,79,0.00,,,0.00,vanprod,2013-01-05 11:15:00,
2013-01-05 06:25:00,26.7,21.0,29.86,SW,219,0.0,0.0,80,0.00,,,0.00,vanprod,2013-01-05 11:25:00,
2013-01-05 06:35:00,26.4,21.0,29.87,SW,219,0.0,0.0,80,0.00,,,0.00,vanprod,2013-01-05 11:35:00,
2013-01-05 06:45:00,26.3,21.0,29.87,SW,217,0.0,0.0,81,0.00,,,0.00,vanprod,2013-01-05 11:45:00,
2013-01-05 06:55:00,26.1,21.0,29.87,SW,219,0.0,0.0,81,0.00,,,0.00,vanprod,2013-01-05 11:55:00,
2013-01-05 07:05:00,26.0,21.0,29.88,SW,217,0.0,0.0,81,0.00,,,0.00,vanprod,2013-01-05 12:05:00,
2013-01-05 07:15:00,26.0,21.0,29.89,SW,219,0.0,0.0,81,0.00,,,0.00,vanprod,2013-01-05 12:15:00,
2013-01-05 07:25:00,26.0,21.0,29.89,SW,219,0.0,0.0,81,0.00,,,0.00,vanprod,2013-01-05 12:25:00,
2013-01-05 07:35:00,26.0,21.0,29.90,SW,219,0.0,0.0,81,0.00,,,0.00,vanprod,2013-01-05 12:35:00,
2013-01-05 07:45:00,26.1,21.0,29.92,SW,219,0.0,0.0,81,0.00,,,0.00,vanprod,2013-01-05 12:45:00,
2013-01-05 07:55:00,26.4,21.0,29.92,SW,219,0.0,0.0,80,0.00,,,0.00,vanprod,2013-01-05 12:55:00,
2013-01-05 08:05:00,26.6,22.0,29.93,SW,219,0.0,0.0,81,0.00,,,0.00,vanprod,2013-01-05 13:05:00,
2013-01-05 08:15:00,27.0,22.0,29.94,SW,219,0.0,0.0,81,0.00,,,0.00,vanprod,2013-01-05 13:15:00,
2013-01-05 08:25:00,27.5,22.0,29.94,SW,217,0.0,0.0,80,0.00,,,0.00,vanprod,2013-01-05 13:25:00,
2013-01-05 08:35:00,28.1,22.0,29.96,SW,219,0.0,0.0,79,0.00,,,0.00,vanprod,2013-01-05 13:35:00,
2013-01-05 08:45:00,28.5,23.0,29.96,SW,215,0.0,0.0,78,0.00,,,0.00,vanprod,2013-01-05 13:45:00,
2013-01-05 08:55:00,28.8,23.0,29.96,NW,305,1.0,2.0,78,0.00,,,0.00,vanprod,2013-01-05 13:55:00,
2013-01-05 09:05:00,29.7,23.0,29.97,NNW,335,1.0,1.0,76,0.00,,,0.00,vanprod,2013-01-05 14:05:00,
2013-01-05 09:15:00,31.2,23.0,29.98,NW,304,2.0,2.0,71,0.00,,,0.00,vanprod,2013-01-05 14:15:00,
2013-01-05 09:25:00,33.1,23.0,29.98,SW,220,3.0,3.0,66,0.00,,,0.00,vanprod,2013-01-05 14:25:00,
2013-01-05 09:35:00,34.3,23.0,29.99,West,268,2.0,2.0,63,0.00,,,0.00,vanprod,2013-01-05 14:35:00,
2013-01-05 09:45:00,35.3,22.0,30.01,WNW,284,2.0,2.0,57,0.00,,,0.00,vanprod,2013-01-05 14:45:00,
2013-01-05 09:55:00,35.9,22.0,30.01,WNW,302,2.0,2.0,56,0.00,,,0.00,vanprod,2013-01-05 14:55:00,
2013-01-05 10:05:00,36.3,18.0,30.02,WNW,282,3.0,3.0,48,0.00,,,0.00,vanprod,2013-01-05 15:05:00,
2013-01-05 10:15:00,36.5,16.0,30.01,West,261,4.0,11.0,43,0.00,,,0.00,vanprod,2013-01-05 15:15:00,
2013-01-05 10:25:00,36.2,14.0,30.01,WSW,256,5.0,5.0,40,0.00,,,0.00,vanprod,2013-01-05 15:25:00,
2013-01-05 10:35:00,36.5,15.0,30.02,West,261,6.0,7.0,41,0.00,,,0.00,vanprod,2013-01-05 15:35:00,
2013-01-05 10:45:00,36.5,14.0,30.02,WNW,298,6.0,13.0,40,0.00,,,0.00,vanprod,2013-01-05 15:45:00,
2013-01-05 10:55:00,36.3,16.0,30.02,West,260,5.0,5.0,43,0.00,,,0.00,vanprod,2013-01-05 15:55:00,
2013-01-05 11:05:00,36.3,15.0,30.03,West,261,5.0,5.0,41,0.00,,,0.00,vanprod,2013-01-05 16:05:00,
2013-01-05 11:15:00,36.3,14.0,30.04,WSW,237,5.0,6.0,40,0.00,,,0.00,vanprod,2013-01-05 16:15:00,
2013-01-05 11:25:00,36.2,15.0,30.04,WSW,237,5.0,5.0,41,0.00,,,0.00,vanprod,2013-01-05 16:25:00,
2013-01-05 11:35:00,36.2,15.0,30.04,West,275,5.0,6.0,42,0.00,,,0.00,vanprod,2013-01-05 16:35:00,
2013-01-05 11:45:00,36.2,15.0,30.04,WNW,287,5.0,6.0,41,0.00,,,0.00,vanprod,2013-01-05 16:45:00,
2013-01-05 11:55:00,36.2,16.0,30.04,WSW,243,4.0,4.0,43,0.00,,,0.00,vanprod,2013-01-05 16:55:00,
2013-01-05 12:05:00,36.2,15.0,30.05,West,270,5.0,5.0,41,0.00,,,0.00,vanprod,2013-01-05 17:05:00,
2013-01-05 12:15:00,36.2,16.0,30.05,WSW,246,4.0,4.0,43,0.00,,,0.00,vanprod,2013-01-05 17:15:00,
2013-01-05 12:25:00,36.2,15.0,30.05,SW,233,3.0,5.0,42,0.00,,,0.00,vanprod,2013-01-05 17:25:00,
2013-01-05 12:35:00,36.3,15.0,30.06,North,359,4.0,4.0,41,0.00,,,0.00,vanprod,2013-01-05 17:35:00,
2013-01-05 12:45:00,36.3,15.0,30.06,SW,224,3.0,3.0,42,0.00,,,0.00,vanprod,2013-01-05 17:45:00,
2013-01-05 12:55:00,36.5,15.0,30.07,NW,322,4.0,4.0,42,0.00,,,0.00,vanprod,2013-01-05 17:55:00,
2013-01-05 13:05:00,36.6,15.0,30.06,South,189,5.0,8.0,42,0.00,,,0.00,vanprod,2013-01-05 18:05:00,
2013-01-05 13:15:00,36.5,15.0,30.07,NW,322,6.0,6.0,41,0.00,,,0.00,vanprod,2013-01-05 18:15:00,
2013-01-05 13:25:00,36.2,15.0,30.07,West,272,5.0,5.0,41,0.00,,,0.00,vanprod,2013-01-05 18:25:00,
2013-01-05 13:35:00,36.3,15.0,30.07,NW,319,6.0,6.0,42,0.00,,,0.00,vanprod,2013-01-05 18:35:00,
2013-01-05 13:45:00,36.3,15.0,30.07,NE,40,5.0,7.0,41,0.00,,,0.00,vanprod,2013-01-05 18:45:00,
2013-01-05 13:55:00,36.3,16.0,30.08,NW,322,4.0,8.0,43,0.00,,,0.00,vanprod,2013-01-05 18:55:00,
2013-01-05 14:05:00,36.3,15.0,30.08,WNW,302,4.0,4.0,41,0.00,,,0.00,vanprod,2013-01-05 19:05:00,
2013-01-05 14:15:00,36.0,15.0,30.08,NW,309,4.0,7.0,43,0.00,,,0.00,vanprod,2013-01-05 19:15:00,
2013-01-05 14:25:00,36.0,17.0,30.08,NW,318,2.0,2.0,45,0.00,,,0.00,vanprod,2013-01-05 19:25:00,
2013-01-05 14:35:00,36.0,15.0,30.09,SW,236,4.0,4.0,43,0.00,,,0.00,vanprod,2013-01-05 19:35:00,
2013-01-05 14:45:00,35.6,15.0,30.08,WNW,288,4.0,4.0,43,0.00,,,0.00,vanprod,2013-01-05 19:45:00,
2013-01-05 14:55:00,35.5,17.0,30.08,NW,304,3.0,3.0,47,0.00,,,0.00,vanprod,2013-01-05 19:55:00,
2013-01-05 15:05:00,34.9,16.0,30.07,West,278,5.0,9.0,46,0.00,,,0.00,vanprod,2013-01-05 20:05:00,
2013-01-05 15:15:00,34.9,16.0,30.07,WNW,299,4.0,4.0,46,0.00,,,0.00,vanprod,2013-01-05 20:15:00,
2013-01-05 15:25:00,34.6,17.0,30.08,NNW,332,2.0,2.0,48,0.00,,,0.00,vanprod,2013-01-05 20:25:00,
2013-01-05 15:35:00,34.1,18.0,30.09,NNW,344,2.0,2.0,52,0.00,,,0.00,vanprod,2013-01-05 20:35:00,
2013-01-05 15:45:00,34.0,16.0,30.09,NW,311,3.0,3.0,47,0.00,,,0.00,vanprod,2013-01-05 20:45:00,
2013-01-05 15:55:00,33.8,16.0,30.09,NW,322,2.0,3.0,48,0.00,,,0.00,vanprod,2013-01-05 20:55:00,
2013-01-05 16:05:00,33.5,16.0,30.09,North,10,1.0,0.0,48,0.00,,,0.00,vanprod,2013-01-05 21:05:00,
2013-01-05 16:15:00,33.1,16.0,30.09,North,10,0.0,1.0,50,0.00,,,0.00,vanprod,2013-01-05 21:15:00,
2013-01-05 16:25:00,32.5,18.0,30.10,North,350,2.0,0.0,54,0.00,,,0.00,vanprod,2013-01-05 21:25:00,
2013-01-05 16:35:00,31.5,19.0,30.11,North,350,0.0,0.0,60,0.00,,,0.00,vanprod,2013-01-05 21:35:00,
2013-01-05 16:45:00,30.4,17.0,30.13,North,349,0.0,0.0,58,0.00,,,0.00,vanprod,2013-01-05 21:45:00,
2013-01-05 16:55:00,29.8,17.0,30.13,NNW,347,0.0,0.0,58,0.00,,,0.00,vanprod,2013-01-05 21:55:00,
2013-01-05 17:05:00,29.3,18.0,30.14,North,350,0.0,0.0,62,0.00,,,0.00,vanprod,2013-01-05 22:05:00,
2013-01-05 17:15:00,28.8,18.0,30.15,North,349,0.0,1.0,63,0.00,,,0.00,vanprod,2013-01-05 22:15:00,
2013-01-05 17:25:00,28.2,17.0,30.15,North,4,0.0,0.0,62,0.00,,,0.00,vanprod,2013-01-05 22:25:00,
2013-01-05 17:35:00,28.1,18.0,30.15,North,4,0.0,0.0,66,0.00,,,0.00,vanprod,2013-01-05 22:35:00,
2013-01-05 17:45:00,27.5,17.0,30.15,North,4,0.0,0.0,63,0.00,,,0.00,vanprod,2013-01-05 22:45:00,
2013-01-05 17:55:00,27.3,17.0,30.15,North,4,0.0,2.0,66,0.00,,,0.00,vanprod,2013-01-05 22:55:00,
2013-01-05 18:05:00,26.9,16.0,30.15,North,4,2.0,2.0,64,0.00,,,0.00,vanprod,2013-01-05 23:05:00,
2013-01-05 18:15:00,26.7,18.0,30.16,North,4,0.0,0.0,68,0.00,,,0.00,vanprod,2013-01-05 23:15:00,
2013-01-05 18:25:00,26.4,17.0,30.16,North,4,0.0,0.0,68,0.00,,,0.00,vanprod,2013-01-05 23:25:00,
2013-01-05 18:35:00,25.7,17.0,30.16,North,4,0.0,0.0,70,0.00,,,0.00,vanprod,2013-01-05 23:35:00,
2013-01-05 18:45:00,25.3,18.0,30.16,North,4,0.0,0.0,72,0.00,,,0.00,vanprod,2013-01-05 23:45:00,
2013-01-05 18:55:00,24.5,17.0,30.17,North,6,0.0,0.0,73,0.00,,,0.00,vanprod,2013-01-05 23:55:00,
2013-01-05 19:05:00,24.2,17.0,30.18,North,4,0.0,0.0,74,0.00,,,0.00,vanprod,2013-01-06 00:05:00,
2013-01-05 19:15:00,23.9,17.0,30.18,North,4,0.0,0.0,75,0.00,,,0.00,vanprod,2013-01-06 00:15:00,
2013-01-05 19:25:00,23.6,16.0,30.18,North,4,0.0,0.0,73,0.00,,,0.00,vanprod,2013-01-06 00:25:00,
2013-01-05 19:35:00,23.3,17.0,30.18,North,4,0.0,0.0,76,0.00,,,0.00,vanprod,2013-01-06 00:35:00,
2013-01-05 19:45:00,23.0,16.0,30.18,North,4,0.0,0.0,74,0.00,,,0.00,vanprod,2013-01-06 00:45:00,
2013-01-05 19:55:00,22.7,17.0,30.18,North,4,0.0,0.0,77,0.00,,,0.00,vanprod,2013-01-06 00:55:00,
2013-01-05 20:05:00,22.4,16.0,30.18,North,4,0.0,0.0,76,0.00,,,0.00,vanprod,2013-01-06 01:05:00,
2013-01-05 20:15:00,22.2,16.0,30.18,North,6,0.0,0.0,77,0.00,,,0.00,vanprod,2013-01-06 01:15:00,
2013-01-05 20:25:00,21.9,16.0,30.18,North,4,0.0,0.0,77,0.00,,,0.00,vanprod,2013-01-06 01:25:00,
2013-01-05 20:35:00,21.6,16.0,30.18,North,4,0.0,0.0,77,0.00,,,0.00,vanprod,2013-01-06 01:35:00,
2013-01-05 20:45:00,21.4,15.0,30.18,North,4,0.0,0.0,77,0.00,,,0.00,vanprod,2013-01-06 01:45:00,
2013-01-05 20:55:00,21.1,16.0,30.16,North,4,1.0,0.0,79,0.00,,,0.00,vanprod,2013-01-06 01:55:00,
2013-01-05 21:05:00,20.8,15.0,30.16,North,4,0.0,1.0,79,0.00,,,0.00,vanprod,2013-01-06 02:05:00,
2013-01-05 21:15:00,20.5,15.0,30.16,North,4,0.0,0.0,79,0.00,,,0.00,vanprod,2013-01-06 02:15:00,
2013-01-05 21:25:00,20.2,15.0,30.16,North,0,0.0,0.0,80,0.00,,,0.00,vanprod,2013-01-06 02:25:00,
2013-01-05 21:35:00,20.2,15.0,30.16,North,4,0.0,0.0,80,0.00,,,0.00,vanprod,2013-01-06 02:35:00,
2013-01-05 21:45:00,20.0,15.0,30.16,North,4,0.0,0.0,79,0.00,,,0.00,vanprod,2013-01-06 02:45:00,
2013-01-05 21:55:00,20.0,15.0,30.16,North,4,0.0,0.0,80,0.00,,,0.00,vanprod,2013-01-06 02:55:00,
2013-01-05 22:05:00,19.9,15.0,30.16,North,4,0.0,0.0,81,0.00,,,0.00,vanprod,2013-01-06 03:05:00,
2013-01-05 22:15:00,19.7,15.0,30.16,North,4,0.0,0.0,81,0.00,,,0.00,vanprod,2013-01-06 03:15:00,
2013-01-05 22:25:00,19.7,15.0,30.16,North,4,0.0,0.0,81,0.00,,,0.00,vanprod,2013-01-06 03:25:00,
2013-01-05 22:35:00,19.4,14.0,30.16,North,4,0.0,0.0,80,0.00,,,0.00,vanprod,2013-01-06 03:35:00,
2013-01-05 22:45:00,19.2,14.0,30.16,North,4,0.0,0.0,81,0.00,,,0.00,vanprod,2013-01-06 03:45:00,
2013-01-05 22:55:00,18.8,14.0,30.16,North,4,0.0,0.0,81,0.00,,,0.00,vanprod,2013-01-06 03:55:00,
2013-01-05 23:05:00,18.6,14.0,30.17,North,6,0.0,0.0,81,0.00,,,0.00,vanprod,2013-01-06 04:05:00,
2013-01-05 23:15:00,18.3,14.0,30.17,North,4,0.0,0.0,82,0.00,,,0.00,vanprod,2013-01-06 04:15:00,
2013-01-05 23:25:00,18.0,13.0,30.16,North,4,0.0,0.0,82,0.00,,,0.00,vanprod,2013-01-06 04:25:00,
2013-01-05 23:35:00,18.0,14.0,30.15,North,6,0.0,0.0,83,0.00,,,0.00,vanprod,2013-01-06 04:35:00,
2013-01-05 23:45:00,18.0,14.0,30.15,North,4,0.0,0.0,83,0.00,,,0.00,vanprod,2013-01-06 04:45:00,
2013-01-05 23:55:00,18.0,14.0,30.15,North,4,0.0,0.0,84,0.00,,,0.00,vanprod,2013-01-06 04:55:00,